Time,TemperatureF,DewpointF,PressureIn,WindDirection,WindDirectionDegrees,WindSpeedMPH,WindSpeedGustMPH,Humidity,HourlyPrecipIn,Conditions,Clouds,dailyrainin,SoftwareType,DateUTC
2013-03-18 00:01:00,36.7,35.4,29.70,East,87,0.0,-999.0,95,0.00,,,0.00,WeatherSnoop3.0,2013-03-18 05:01:00,
2013-03-18 00:06:00,36.7,35.4,29.71,NNE,13,1.0,-999.0,95,0.00,,,0.00,WeatherSnoop3.0,2013-03-18 05:06:00,
2013-03-18 00:11:00,36.7,35.4,29.72,North,354,1.0,-999.0,95,0.00,,,0.00,WeatherSnoop3.0,2013-03-18 05:11:00,
2013-03-18 00:16:00,36.8,35.5,29.72,NE,34,2.0,-999.0,95,0.00,,,0.00,WeatherSnoop3.0,2013-03-18 05:16:00,
2013-03-18 00:21:00,36.8,35.5,29.72,NE,46,1.0,-999.0,95,0.00,,,0.00,WeatherSnoop3.0,2013-03-18 05:21:00,
2013-03-18 00:26:00,36.8,35.5,29.72,North,352,2.0,-999.0,95,0.00,,,0.00,WeatherSnoop3.0,2013-03-18 05:26:00,
2013-03-18 00:31:00,36.9,35.6,29.72,NE,39,0.0,-999.0,95,0.00,,,0.00,WeatherSnoop3.0,2013-03-18 05:31:00,
2013-03-18 00:37:00,36.9,35.6,29.73,NNE,29,0.0,-999.0,95,0.00,,,0.00,WeatherSnoop3.0,2013-03-18 05:37:00,
2013-03-18 00:42:00,36.9,35.6,29.73,NE,43,3.0,-999.0,95,0.00,,,0.00,WeatherSnoop3.0,2013-03-18 05:42:00,
2013-03-18 00:47:00,37.0,35.7,29.73,NNE,16,2.0,-999.0,95,0.00,,,0.00,WeatherSnoop3.0,2013-03-18 05:47:00,
2013-03-18 00:52:00,37.1,35.8,29.73,NW,323,0.0,-999.0,95,0.00,,,0.00,WeatherSnoop3.0,2013-03-18 05:52:00,
2013-03-18 00:57:00,37.2,35.9,29.73,NNE,13,0.0,-999.0,95,0.00,,,0.00,WeatherSnoop3.0,2013-03-18 05:57:00,
2013-03-18 01:02:00,37.2,35.6,29.73,NE,43,0.0,-999.0,94,0.00,,,0.00,WeatherSnoop3.0,2013-03-18 06:02:00,
2013-03-18 01:07:00,37.2,35.6,29.72,NE,43,0.0,-999.0,94,0.00,,,0.00,WeatherSnoop3.0,2013-03-18 06:07:00,
2013-03-18 01:12:00,37.2,35.6,29.70,SSE,155,2.0,-999.0,94,0.00,,,0.00,WeatherSnoop3.0,2013-03-18 06:12:00,
2013-03-18 01:17:00,37.2,35.6,29.70,SE,139,1.0,-999.0,94,0.00,,,0.00,WeatherSnoop3.0,2013-03-18 06:17:00,
2013-03-18 01:22:00,37.2,35.6,29.71,SSE,163,0.0,-999.0,94,0.00,,,0.00,WeatherSnoop3.0,2013-03-18 06:22:00,
2013-03-18 01:27:00,37.2,35.6,29.74,NNW,337,1.0,-999.0,94,0.00,,,0.00,WeatherSnoop3.0,2013-03-18 06:27:00,
2013-03-18 01:32:00,37.3,35.7,29.74,NW,323,2.0,-999.0,94,0.00,,,0.00,WeatherSnoop3.0,2013-03-18 06:32:00,
2013-03-18 01:37:00,37.3,35.7,29.73,NNE,32,1.0,-999.0,94,0.00,,,0.00,WeatherSnoop3.0,2013-03-18 06:37:00,
2013-03-18 01:42:00,37.3,35.7,29.73,NE,39,0.0,-999.0,94,0.00,,,0.00,WeatherSnoop3.0,2013-03-18 06:42:00,
2013-03-18 01:47:00,37.3,35.7,29.74,NNE,25,0.0,-999.0,94,0.00,,,0.00,WeatherSnoop3.0,2013-03-18 06:47:00,
2013-03-18 01:52:00,37.4,36.1,29.74,North,4,0.0,-999.0,95,0.00,,,0.00,WeatherSnoop3.0,2013-03-18 06:52:00,
2013-03-18 01:57:00,37.3,35.7,29.74,NNE,22,2.0,-999.0,94,0.00,,,0.00,WeatherSnoop3.0,2013-03-18 06:57:00,
2013-03-18 02:02:00,37.2,35.9,29.73,NW,318,2.0,-999.0,95,0.00,,,0.00,WeatherSnoop3.0,2013-03-18 07:02:00,
2013-03-18 02:07:00,37.2,35.9,29.73,ENE,57,1.0,-999.0,95,0.00,,,0.00,WeatherSnoop3.0,2013-03-18 07:07:00,
2013-03-18 02:12:00,37.2,35.9,29.73,NNE,25,1.0,-999.0,95,0.00,,,0.00,WeatherSnoop3.0,2013-03-18 07:12:00,
2013-03-18 02:17:00,37.1,35.8,29.72,NNE,18,2.0,-999.0,95,0.00,,,0.00,WeatherSnoop3.0,2013-03-18 07:17:00,
2013-03-18 02:22:00,37.1,35.8,29.72,NE,34,0.0,-999.0,95,0.00,,,0.00,WeatherSnoop3.0,2013-03-18 07:22:00,
2013-03-18 02:27:00,37.1,35.8,29.72,NE,40,3.0,-999.0,95,0.00,,,0.00,WeatherSnoop3.0,2013-03-18 07:27:00,
2013-03-18 02:32:00,37.0,35.7,29.73,NNE,32,3.0,-999.0,95,0.00,,,0.00,WeatherSnoop3.0,2013-03-18 07:32:00,
2013-03-18 02:38:00,36.9,35.6,29.73,NNE,25,3.0,-999.0,95,0.00,,,0.00,WeatherSnoop3.0,2013-03-18 07:38:00,
2013-03-18 02:43:00,36.9,35.9,29.73,NNW,347,2.0,-999.0,96,0.00,,,0.00,WeatherSnoop3.0,2013-03-18 07:43:00,
2013-03-18 02:48:00,36.8,35.8,29.73,North,1,0.0,-999.0,96,0.00,,,0.00,WeatherSnoop3.0,2013-03-18 07:48:00,
2013-03-18 02:53:00,36.8,35.8,29.74,NE,40,0.0,-999.0,96,0.00,,,0.00,WeatherSnoop3.0,2013-03-18 07:53:00,
2013-03-18 02:58:00,36.8,35.8,29.73,North,356,1.0,-999.0,96,0.00,,,0.00,WeatherSnoop3.0,2013-03-18 07:58:00,
2013-03-18 03:03:00,36.8,35.8,29.74,North,4,0.0,-999.0,96,0.00,,,0.00,WeatherSnoop3.0,2013-03-18 08:03:00,
2013-03-18 03:08:00,36.8,35.8,29.75,West,280,1.0,-999.0,96,0.00,,,0.00,WeatherSnoop3.0,2013-03-18 08:08:00,
2013-03-18 03:13:00,36.9,35.9,29.72,NE,52,3.0,-999.0,96,0.00,,,0.00,WeatherSnoop3.0,2013-03-18 08:13:00,
2013-03-18 03:18:00,36.9,35.9,29.73,NW,304,0.0,-999.0,96,0.00,,,0.00,WeatherSnoop3.0,2013-03-18 08:18:00,
2013-03-18 03:23:00,36.9,35.9,29.71,NNE,32,4.0,-999.0,96,0.00,,,0.00,WeatherSnoop3.0,2013-03-18 08:23:00,
2013-03-18 03:28:00,36.9,35.9,29.71,ENE,57,1.0,-999.0,96,0.00,,,0.00,WeatherSnoop3.0,2013-03-18 08:28:00,
2013-03-18 03:33:00,36.9,35.9,29.70,NNE,29,1.0,-999.0,96,0.00,,,0.00,WeatherSnoop3.0,2013-03-18 08:33:00,
2013-03-18 03:38:00,36.9,35.9,29.72,NW,323,0.0,-999.0,96,0.00,,,0.00,WeatherSnoop3.0,2013-03-18 08:38:00,
2013-03-18 03:43:00,36.9,35.9,29.73,West,278,0.0,-999.0,96,0.00,,,0.00,WeatherSnoop3.0,2013-03-18 08:43:00,
2013-03-18 03:48:00,37.0,36.0,29.73,NNW,346,0.0,-999.0,96,0.00,,,0.00,WeatherSnoop3.0,2013-03-18 08:48:00,
2013-03-18 03:53:00,37.0,36.0,29.74,West,280,1.0,-999.0,96,0.00,,,0.00,WeatherSnoop3.0,2013-03-18 08:53:00,
2013-03-18 03:58:00,37.0,36.0,29.75,WNW,289,0.0,-999.0,96,0.00,,,0.00,WeatherSnoop3.0,2013-03-18 08:58:00,
2013-03-18 04:03:00,36.9,35.9,29.74,WNW,287,0.0,-999.0,96,0.00,,,0.00,WeatherSnoop3.0,2013-03-18 09:03:00,
2013-03-18 04:08:00,37.0,36.0,29.74,WNW,292,0.0,-999.0,96,0.00,,,0.00,WeatherSnoop3.0,2013-03-18 09:08:00,
2013-03-18 04:13:00,37.0,36.0,29.74,NW,304,1.0,-999.0,96,0.00,,,0.00,WeatherSnoop3.0,2013-03-18 09:13:00,
2013-03-18 04:18:00,37.0,36.0,29.74,NNE,26,0.0,-999.0,96,0.00,,,0.00,WeatherSnoop3.0,2013-03-18 09:18:00,
2013-03-18 04:23:00,37.1,36.1,29.75,WNW,288,1.0,-999.0,96,0.00,,,0.00,WeatherSnoop3.0,2013-03-18 09:23:00,
2013-03-18 04:28:00,37.1,36.1,29.76,WNW,296,0.0,-999.0,96,0.00,,,0.00,WeatherSnoop3.0,2013-03-18 09:28:00,
2013-03-18 04:33:00,37.1,36.1,29.75,West,274,0.0,-999.0,96,0.00,,,0.00,WeatherSnoop3.0,2013-03-18 09:33:00,
2013-03-18 04:38:00,37.2,36.2,29.75,NNW,334,0.0,-999.0,96,0.00,,,0.00,WeatherSnoop3.0,2013-03-18 09:38:00,
2013-03-18 04:43:00,37.2,36.2,29.76,NW,309,1.0,-999.0,96,0.00,,,0.00,WeatherSnoop3.0,2013-03-18 09:43:00,
2013-03-18 04:48:00,37.2,36.2,29.76,WNW,287,1.0,-999.0,96,0.00,,,0.00,WeatherSnoop3.0,2013-03-18 09:48:00,
2013-03-18 04:53:00,37.3,36.3,29.77,WNW,295,1.0,-999.0,96,0.00,,,0.00,WeatherSnoop3.0,2013-03-18 09:53:00,
2013-03-18 04:58:00,37.4,36.4,29.77,WNW,287,0.0,-999.0,96,0.00,,,0.00,WeatherSnoop3.0,2013-03-18 09:58:00,
2013-03-18 05:03:00,37.5,36.5,29.77,West,266,1.0,-999.0,96,0.00,,,0.00,WeatherSnoop3.0,2013-03-18 10:03:00,
2013-03-18 05:08:00,37.6,36.6,29.78,WNW,289,3.0,-999.0,96,0.00,,,0.00,WeatherSnoop3.0,2013-03-18 10:08:00,
2013-03-18 05:13:00,37.6,36.6,29.78,West,277,2.0,-999.0,96,0.00,,,0.00,WeatherSnoop3.0,2013-03-18 10:13:00,
2013-03-18 05:18:00,37.7,36.7,29.79,West,273,2.0,-999.0,96,0.00,,,0.00,WeatherSnoop3.0,2013-03-18 10:18:00,
2013-03-18 05:23:00,37.8,36.8,29.79,West,273,1.0,-999.0,96,0.00,,,0.00,WeatherSnoop3.0,2013-03-18 10:23:00,
2013-03-18 05:28:00,37.9,36.9,29.79,WNW,300,2.0,-999.0,96,0.00,,,0.00,WeatherSnoop3.0,2013-03-18 10:28:00,
2013-03-18 05:33:00,38.0,37.0,29.79,WNW,285,1.0,-999.0,96,0.00,,,0.00,WeatherSnoop3.0,2013-03-18 10:33:00,
2013-03-18 05:38:00,38.1,37.1,29.78,West,271,1.0,-999.0,96,0.00,,,0.00,WeatherSnoop3.0,2013-03-18 10:38:00,
2013-03-18 05:43:00,38.1,37.1,29.78,NW,314,1.0,-999.0,96,0.00,,,0.00,WeatherSnoop3.0,2013-03-18 10:43:00,
2013-03-18 05:48:00,38.2,36.9,29.78,WNW,295,5.0,-999.0,95,0.00,,,0.00,WeatherSnoop3.0,2013-03-18 10:48:00,
2013-03-18 05:53:00,38.4,37.1,29.78,WSW,257,1.0,-999.0,95,0.00,,,0.00,WeatherSnoop3.0,2013-03-18 10:53:00,
2013-03-18 05:58:00,38.5,37.2,29.79,WNW,283,2.0,-999.0,95,0.00,,,0.00,WeatherSnoop3.0,2013-03-18 10:58:00,
2013-03-18 06:03:00,38.6,37.3,29.80,WNW,292,4.0,-999.0,95,0.00,,,0.00,WeatherSnoop3.0,2013-03-18 11:03:00,
2013-03-18 06:08:00,38.6,37.3,29.80,West,267,4.0,-999.0,95,0.00,,,0.00,WeatherSnoop3.0,2013-03-18 11:08:00,
2013-03-18 06:13:00,38.7,37.1,29.80,West,263,1.0,-999.0,94,0.00,,,0.00,WeatherSnoop3.0,2013-03-18 11:13:00,
2013-03-18 06:18:00,38.7,37.1,29.80,West,269,1.0,-999.0,94,0.00,,,0.00,WeatherSnoop3.0,2013-03-18 11:18:00,
2013-03-18 06:23:00,38.6,37.0,29.80,NNW,337,0.0,-999.0,94,0.00,,,0.00,WeatherSnoop3.0,2013-03-18 11:23:00,
2013-03-18 06:28:00,38.2,36.4,29.80,West,278,0.0,-999.0,93,0.00,,,0.00,WeatherSnoop3.0,2013-03-18 11:28:00,
2013-03-18 06:33:00,37.8,36.0,29.81,NNE,29,3.0,-999.0,93,0.00,,,0.00,WeatherSnoop3.0,2013-03-18 11:33:00,
2013-03-18 06:38:00,37.5,35.9,29.81,NNW,345,0.0,-999.0,94,0.00,,,0.00,WeatherSnoop3.0,2013-03-18 11:38:00,
2013-03-18 06:43:00,37.1,35.5,29.81,WNW,285,0.0,-999.0,94,0.00,,,0.00,WeatherSnoop3.0,2013-03-18 11:43:00,
2013-03-18 06:48:00,36.8,35.2,29.82,East,87,0.0,-999.0,94,0.00,,,0.00,WeatherSnoop3.0,2013-03-18 11:48:00,
2013-03-18 06:53:00,36.9,35.6,29.82,NNW,342,0.0,-999.0,95,0.00,,,0.00,WeatherSnoop3.0,2013-03-18 11:53:00,
2013-03-18 06:58:00,37.2,36.2,29.83,WNW,285,2.0,-999.0,96,0.00,,,0.00,WeatherSnoop3.0,2013-03-18 11:58:00,
2013-03-18 07:03:00,37.6,36.6,29.83,NNE,19,0.0,-999.0,96,0.00,,,0.00,WeatherSnoop3.0,2013-03-18 12:03:00,
2013-03-18 07:08:00,37.7,36.4,29.82,WSW,257,0.0,-999.0,95,0.00,,,0.00,WeatherSnoop3.0,2013-03-18 12:08:00,
2013-03-18 07:13:00,37.5,35.9,29.82,West,269,1.0,-999.0,94,0.00,,,0.00,WeatherSnoop3.0,2013-03-18 12:13:00,
2013-03-18 07:18:00,37.1,35.5,29.83,West,273,1.0,-999.0,94,0.00,,,0.00,WeatherSnoop3.0,2013-03-18 12:18:00,
2013-03-18 07:23:00,36.6,35.0,29.83,WNW,284,0.0,-999.0,94,0.00,,,0.00,WeatherSnoop3.0,2013-03-18 12:23:00,
2013-03-18 07:28:00,36.3,34.7,29.83,West,276,2.0,-999.0,94,0.00,,,0.00,WeatherSnoop3.0,2013-03-18 12:28:00,
2013-03-18 07:33:00,36.0,34.7,29.84,WNW,295,2.0,-999.0,95,0.00,,,0.00,WeatherSnoop3.0,2013-03-18 12:33:00,
2013-03-18 07:38:00,35.9,34.6,29.84,WNW,283,2.0,-999.0,95,0.00,,,0.00,WeatherSnoop3.0,2013-03-18 12:38:00,
2013-03-18 07:43:00,35.7,34.4,29.85,WNW,284,0.0,-999.0,95,0.00,,,0.00,WeatherSnoop3.0,2013-03-18 12:43:00,
2013-03-18 07:48:00,35.6,34.3,29.86,WNW,284,1.0,-999.0,95,0.00,,,0.00,WeatherSnoop3.0,2013-03-18 12:48:00,
2013-03-18 07:53:00,35.3,34.0,29.86,West,281,1.0,-999.0,95,0.00,,,0.00,WeatherSnoop3.0,2013-03-18 12:53:00,
2013-03-18 07:58:00,35.1,33.8,29.86,West,276,1.0,-999.0,95,0.00,,,0.00,WeatherSnoop3.0,2013-03-18 12:58:00,
2013-03-18 08:03:00,35.2,34.2,29.86,WNW,295,0.0,-999.0,96,0.00,,,0.00,WeatherSnoop3.0,2013-03-18 13:03:00,
2013-03-18 08:08:00,35.6,34.6,29.87,WNW,293,0.0,-999.0,96,0.00,,,0.00,WeatherSnoop3.0,2013-03-18 13:08:00,
2013-03-18 08:13:00,35.9,34.9,29.87,West,270,1.0,-999.0,96,0.00,,,0.00,WeatherSnoop3.0,2013-03-18 13:13:00,
2013-03-18 08:18:00,36.1,34.8,29.87,WNW,288,0.0,-999.0,95,0.00,,,0.00,WeatherSnoop3.0,2013-03-18 13:18:00,
2013-03-18 08:23:00,36.3,35.0,29.87,West,273,1.0,-999.0,95,0.00,,,0.00,WeatherSnoop3.0,2013-03-18 13:23:00,
2013-03-18 08:28:00,36.7,35.4,29.87,West,278,1.0,-999.0,95,0.00,,,0.00,WeatherSnoop3.0,2013-03-18 13:28:00,
2013-03-18 08:33:00,37.1,35.8,29.87,NW,309,2.0,-999.0,95,0.00,,,0.00,WeatherSnoop3.0,2013-03-18 13:33:00,
2013-03-18 08:39:00,37.6,36.0,29.88,NE,49,2.0,-999.0,94,0.00,,,0.00,WeatherSnoop3.0,2013-03-18 13:39:00,
2013-03-18 08:44:00,38.2,36.4,29.87,WNW,282,4.0,-999.0,93,0.00,,,0.00,WeatherSnoop3.0,2013-03-18 13:44:00,
2013-03-18 08:49:00,38.7,36.3,29.87,East,79,1.0,-999.0,91,0.00,,,0.00,WeatherSnoop3.0,2013-03-18 13:49:00,
2013-03-18 08:54:00,39.1,36.4,29.88,NNE,22,2.0,-999.0,90,0.00,,,0.00,WeatherSnoop3.0,2013-03-18 13:54:00,
2013-03-18 08:59:00,39.3,36.0,29.88,NE,55,2.0,-999.0,88,0.00,,,0.00,WeatherSnoop3.0,2013-03-18 13:59:00,
2013-03-18 09:04:00,39.7,36.2,29.88,WSW,255,4.0,-999.0,87,0.00,,,0.00,WeatherSnoop3.0,2013-03-18 14:04:00,
2013-03-18 09:09:00,39.9,35.5,29.88,NE,43,7.0,-999.0,84,0.00,,,0.00,WeatherSnoop3.0,2013-03-18 14:09:00,
2013-03-18 09:14:00,40.2,35.5,29.89,East,95,3.0,-999.0,83,0.00,,,0.00,WeatherSnoop3.0,2013-03-18 14:14:00,
2013-03-18 09:19:00,40.6,35.2,29.89,NE,50,3.0,-999.0,81,0.00,,,0.00,WeatherSnoop3.0,2013-03-18 14:19:00,
2013-03-18 09:24:00,40.7,34.1,29.89,NNE,14,6.0,-999.0,77,0.00,,,0.00,WeatherSnoop3.0,2013-03-18 14:24:00,
2013-03-18 09:29:00,41.1,34.4,29.89,NE,34,6.0,-999.0,77,0.00,,,0.00,WeatherSnoop3.0,2013-03-18 14:29:00,
2013-03-18 09:34:00,41.5,34.2,29.89,NNE,18,2.0,-999.0,75,0.00,,,0.00,WeatherSnoop3.0,2013-03-18 14:34:00,
2013-03-18 09:39:00,41.6,33.6,29.90,NNE,29,8.0,-999.0,73,0.00,,,0.00,WeatherSnoop3.0,2013-03-18 14:39:00,
2013-03-18 09:44:00,42.0,33.6,29.90,NNE,26,5.0,-999.0,72,0.00,,,0.00,WeatherSnoop3.0,2013-03-18 14:44:00,
2013-03-18 09:49:00,42.2,32.8,29.90,North,349,10.0,-999.0,69,0.00,,,0.00,WeatherSnoop3.0,2013-03-18 14:49:00,
2013-03-18 09:54:00,42.5,33.4,29.91,NNE,20,10.0,-999.0,70,0.00,,,0.00,WeatherSnoop3.0,2013-03-18 14:54:00,
2013-03-18 09:59:00,43.0,33.2,29.91,North,6,6.0,-999.0,68,0.00,,,0.00,WeatherSnoop3.0,2013-03-18 14:59:00,
2013-03-18 10:04:00,43.1,32.1,29.91,North,351,5.0,-999.0,65,0.00,,,0.00,WeatherSnoop3.0,2013-03-18 15:04:00,
2013-03-18 10:09:00,43.2,31.5,29.92,North,354,10.0,-999.0,63,0.00,,,0.00,WeatherSnoop3.0,2013-03-18 15:09:00,
2013-03-18 10:14:00,43.3,31.6,29.92,NNE,19,7.0,-999.0,63,0.00,,,0.00,WeatherSnoop3.0,2013-03-18 15:14:00,
2013-03-18 10:19:00,43.5,31.4,29.92,NNW,331,5.0,-999.0,62,0.00,,,0.00,WeatherSnoop3.0,2013-03-18 15:19:00,
2013-03-18 10:24:00,43.7,31.9,29.92,NW,314,4.0,-999.0,63,0.00,,,0.00,WeatherSnoop3.0,2013-03-18 15:24:00,
2013-03-18 10:29:00,43.9,30.5,29.92,North,349,7.0,-999.0,59,0.00,,,0.00,WeatherSnoop3.0,2013-03-18 15:29:00,
2013-03-18 10:34:00,44.3,30.5,29.92,NNE,28,8.0,-999.0,58,0.00,,,0.00,WeatherSnoop3.0,2013-03-18 15:34:00,
2013-03-18 10:39:00,44.4,30.6,29.92,NNE,18,11.0,-999.0,58,0.00,,,0.00,WeatherSnoop3.0,2013-03-18 15:39:00,
2013-03-18 10:44:00,44.5,30.2,29.92,NNW,338,3.0,-999.0,57,0.00,,,0.00,WeatherSnoop3.0,2013-03-18 15:44:00,
2013-03-18 10:49:00,44.8,30.1,29.92,NNW,330,7.0,-999.0,56,0.00,,,0.00,WeatherSnoop3.0,2013-03-18 15:49:00,
2013-03-18 10:54:00,45.5,30.7,29.92,NE,43,9.0,-999.0,56,0.00,,,0.00,WeatherSnoop3.0,2013-03-18 15:54:00,
2013-03-18 10:59:00,45.7,29.6,29.92,NNE,22,6.0,-999.0,53,0.00,,,0.00,WeatherSnoop3.0,2013-03-18 15:59:00,
2013-03-18 11:04:00,45.8,29.2,29.92,NNE,18,7.0,-999.0,52,0.00,,,0.00,WeatherSnoop3.0,2013-03-18 16:04:00,
2013-03-18 11:09:00,46.0,29.8,29.92,ENE,65,3.0,-999.0,53,0.00,,,0.00,WeatherSnoop3.0,2013-03-18 16:09:00,
2013-03-18 11:14:00,46.4,30.2,29.92,NE,39,11.0,-999.0,53,0.00,,,0.00,WeatherSnoop3.0,2013-03-18 16:14:00,
2013-03-18 11:19:00,46.7,30.5,29.92,NW,321,4.0,-999.0,53,0.00,,,0.00,WeatherSnoop3.0,2013-03-18 16:19:00,
2013-03-18 11:24:00,47.2,30.0,29.93,NNE,26,11.0,-999.0,51,0.00,,,0.00,WeatherSnoop3.0,2013-03-18 16:24:00,
2013-03-18 11:29:00,47.5,30.8,29.93,NNW,329,11.0,-999.0,52,0.00,,,0.00,WeatherSnoop3.0,2013-03-18 16:29:00,
2013-03-18 11:34:00,47.7,30.5,29.93,NNE,20,8.0,-999.0,51,0.00,,,0.00,WeatherSnoop3.0,2013-03-18 16:34:00,
2013-03-18 11:39:00,48.5,30.2,29.93,WNW,284,3.0,-999.0,49,0.00,,,0.00,WeatherSnoop3.0,2013-03-18 16:39:00,
2013-03-18 11:44:00,48.5,29.2,29.93,North,4,3.0,-999.0,47,0.00,,,0.00,WeatherSnoop3.0,2013-03-18 16:44:00,
2013-03-18 11:49:00,47.9,28.7,29.93,NNE,24,9.0,-999.0,47,0.00,,,0.00,WeatherSnoop3.0,2013-03-18 16:49:00,
2013-03-18 11:54:00,47.5,28.8,29.93,NE,40,5.0,-999.0,48,0.00,,,0.00,WeatherSnoop3.0,2013-03-18 16:54:00,
2013-03-18 11:59:00,48.5,29.7,29.93,NNW,338,3.0,-999.0,48,0.00,,,0.00,WeatherSnoop3.0,2013-03-18 16:59:00,
2013-03-18 12:04:00,49.4,29.5,29.93,SW,236,1.0,-999.0,46,0.00,,,0.00,WeatherSnoop3.0,2013-03-18 17:04:00,
2013-03-18 12:09:00,49.4,29.0,29.93,NNW,340,7.0,-999.0,45,0.00,,,0.00,WeatherSnoop3.0,2013-03-18 17:09:00,
2013-03-18 12:14:00,50.2,30.2,29.94,NNE,26,7.0,-999.0,46,0.00,,,0.00,WeatherSnoop3.0,2013-03-18 17:14:00,
2013-03-18 12:19:00,50.2,30.2,29.93,NNE,30,1.0,-999.0,46,0.00,,,0.00,WeatherSnoop3.0,2013-03-18 17:19:00,
2013-03-18 12:24:00,50.6,31.6,29.93,NNE,20,3.0,-999.0,48,0.00,,,0.00,WeatherSnoop3.0,2013-03-18 17:24:00,
2013-03-18 12:29:00,51.4,29.7,29.93,West,273,0.0,-999.0,43,0.00,,,0.00,WeatherSnoop3.0,2013-03-18 17:29:00,
2013-03-18 12:34:00,52.2,30.4,29.93,NW,304,1.0,-999.0,43,0.00,,,0.00,WeatherSnoop3.0,2013-03-18 17:34:00,
2013-03-18 12:39:00,52.5,28.9,29.93,ENE,65,2.0,-999.0,40,0.00,,,0.00,WeatherSnoop3.0,2013-03-18 17:39:00,
2013-03-18 12:44:00,53.3,30.2,29.93,WSW,250,3.0,-999.0,41,0.00,,,0.00,WeatherSnoop3.0,2013-03-18 17:44:00,
2013-03-18 12:49:00,53.5,28.5,29.92,NNE,15,5.0,-999.0,38,0.00,,,0.00,WeatherSnoop3.0,2013-03-18 17:49:00,
2013-03-18 12:54:00,53.1,28.8,29.93,North,355,3.0,-999.0,39,0.00,,,0.00,WeatherSnoop3.0,2013-03-18 17:54:00,
2013-03-18 12:59:00,53.4,27.8,29.93,NE,50,4.0,-999.0,37,0.00,,,0.00,WeatherSnoop3.0,2013-03-18 17:59:00,
2013-03-18 13:04:00,53.2,28.3,29.93,WNW,300,3.0,-999.0,38,0.00,,,0.00,WeatherSnoop3.0,2013-03-18 18:04:00,
2013-03-18 13:09:00,53.6,27.3,29.93,NNE,23,12.0,-999.0,36,0.00,,,0.00,WeatherSnoop3.0,2013-03-18 18:09:00,
2013-03-18 13:14:00,53.8,26.8,29.93,North,358,0.0,-999.0,35,0.00,,,0.00,WeatherSnoop3.0,2013-03-18 18:14:00,
2013-03-18 13:19:00,54.2,27.2,29.93,NNE,27,2.0,-999.0,35,0.00,,,0.00,WeatherSnoop3.0,2013-03-18 18:19:00,
2013-03-18 13:24:00,54.6,26.8,29.92,WNW,300,1.0,-999.0,34,0.00,,,0.00,WeatherSnoop3.0,2013-03-18 18:24:00,
2013-03-18 13:29:00,54.6,26.8,29.93,NW,325,2.0,-999.0,34,0.00,,,0.00,WeatherSnoop3.0,2013-03-18 18:29:00,
2013-03-18 13:34:00,55.1,27.2,29.92,NNE,18,8.0,-999.0,34,0.00,,,0.00,WeatherSnoop3.0,2013-03-18 18:34:00,
2013-03-18 13:39:00,54.9,27.8,29.92,NNE,18,6.0,-999.0,35,0.00,,,0.00,WeatherSnoop3.0,2013-03-18 18:39:00,
2013-03-18 13:44:00,55.6,26.2,29.93,West,280,2.0,-999.0,32,0.00,,,0.00,WeatherSnoop3.0,2013-03-18 18:44:00,
2013-03-18 13:49:00,55.8,27.1,29.92,NW,316,4.0,-999.0,33,0.00,,,0.00,WeatherSnoop3.0,2013-03-18 18:49:00,
2013-03-18 13:54:00,55.6,26.2,29.92,NW,322,10.0,-999.0,32,0.00,,,0.00,WeatherSnoop3.0,2013-03-18 18:54:00,
2013-03-18 13:59:00,55.5,27.6,29.92,North,8,8.0,-999.0,34,0.00,,,0.00,WeatherSnoop3.0,2013-03-18 18:59:00,
2013-03-18 14:04:00,55.6,27.7,29.92,NE,34,5.0,-999.0,34,0.00,,,0.00,WeatherSnoop3.0,2013-03-18 19:04:00,
2013-03-18 14:09:00,55.5,28.3,29.92,NNW,333,1.0,-999.0,35,0.00,,,0.00,WeatherSnoop3.0,2013-03-18 19:09:00,
2013-03-18 14:14:00,56.7,27.2,29.92,NW,311,5.0,-999.0,32,0.00,,,0.00,WeatherSnoop3.0,2013-03-18 19:14:00,
2013-03-18 14:19:00,56.6,27.8,29.92,West,273,3.0,-999.0,33,0.00,,,0.00,WeatherSnoop3.0,2013-03-18 19:19:00,
2013-03-18 14:24:00,56.3,29.0,29.92,NW,324,0.0,-999.0,35,0.00,,,0.00,WeatherSnoop3.0,2013-03-18 19:24:00,
2013-03-18 14:29:00,56.8,26.5,29.92,WSW,240,1.0,-999.0,31,0.00,,,0.00,WeatherSnoop3.0,2013-03-18 19:29:00,
2013-03-18 14:34:00,57.6,27.2,29.92,WSW,248,0.0,-999.0,31,0.00,,,0.00,WeatherSnoop3.0,2013-03-18 19:34:00,
2013-03-18 14:39:00,57.6,28.7,29.92,NNW,329,4.0,-999.0,33,0.00,,,0.00,WeatherSnoop3.0,2013-03-18 19:39:00,
2013-03-18 14:44:00,57.5,27.9,29.92,WNW,286,4.0,-999.0,32,0.00,,,0.00,WeatherSnoop3.0,2013-03-18 19:44:00,
2013-03-18 14:49:00,57.8,26.6,29.92,West,280,8.0,-999.0,30,0.00,,,0.00,WeatherSnoop3.0,2013-03-18 19:49:00,
2013-03-18 14:54:00,56.7,26.4,29.91,NW,311,4.0,-999.0,31,0.00,,,0.00,WeatherSnoop3.0,2013-03-18 19:54:00,
2013-03-18 14:59:00,57.1,26.0,29.92,WNW,282,6.0,-999.0,30,0.00,,,0.00,WeatherSnoop3.0,2013-03-18 19:59:00,
2013-03-18 15:04:00,57.9,25.0,29.92,West,273,1.0,-999.0,28,0.00,,,0.00,WeatherSnoop3.0,2013-03-18 20:04:00,
2013-03-18 15:09:00,57.5,24.7,29.92,WNW,290,1.0,-999.0,28,0.00,,,0.00,WeatherSnoop3.0,2013-03-18 20:09:00,
2013-03-18 15:14:00,57.2,25.2,29.92,NW,304,1.0,-999.0,29,0.00,,,0.00,WeatherSnoop3.0,2013-03-18 20:14:00,
2013-03-18 15:19:00,57.2,26.1,29.91,NNW,340,3.0,-999.0,30,0.00,,,0.00,WeatherSnoop3.0,2013-03-18 20:19:00,
2013-03-18 15:24:00,57.7,25.7,29.91,West,262,3.0,-999.0,29,0.00,,,0.00,WeatherSnoop3.0,2013-03-18 20:24:00,
2013-03-18 15:29:00,57.6,26.4,29.91,WSW,257,2.0,-999.0,30,0.00,,,0.00,WeatherSnoop3.0,2013-03-18 20:29:00,
2013-03-18 15:34:00,57.6,26.4,29.91,NNE,17,3.0,-999.0,30,0.00,,,0.00,WeatherSnoop3.0,2013-03-18 20:34:00,
2013-03-18 15:39:00,57.7,25.7,29.91,NW,311,1.0,-999.0,29,0.00,,,0.00,WeatherSnoop3.0,2013-03-18 20:39:00,
2013-03-18 15:44:00,57.2,26.1,29.91,South,183,2.0,-999.0,30,0.00,,,0.00,WeatherSnoop3.0,2013-03-18 20:44:00,
2013-03-18 15:49:00,57.9,25.8,29.91,West,270,3.0,-999.0,29,0.00,,,0.00,WeatherSnoop3.0,2013-03-18 20:49:00,
2013-03-18 15:54:00,57.6,25.6,29.91,WNW,287,5.0,-999.0,29,0.00,,,0.00,WeatherSnoop3.0,2013-03-18 20:54:00,
2013-03-18 15:59:00,57.3,26.9,29.91,NNE,32,2.0,-999.0,31,0.00,,,0.00,WeatherSnoop3.0,2013-03-18 20:59:00,
2013-03-18 16:04:00,57.4,26.2,29.91,NNE,13,5.0,-999.0,30,0.00,,,0.00,WeatherSnoop3.0,2013-03-18 21:04:00,
2013-03-18 16:09:00,58.0,27.5,29.91,WNW,295,3.0,-999.0,31,0.00,,,0.00,WeatherSnoop3.0,2013-03-18 21:09:00,
2013-03-18 16:14:00,58.5,25.5,29.91,West,274,3.0,-999.0,28,0.00,,,0.00,WeatherSnoop3.0,2013-03-18 21:14:00,
2013-03-18 16:19:00,58.0,26.7,29.91,West,280,2.0,-999.0,30,0.00,,,0.00,WeatherSnoop3.0,2013-03-18 21:19:00,
2013-03-18 16:24:00,58.0,25.9,29.92,WNW,290,4.0,-999.0,29,0.00,,,0.00,WeatherSnoop3.0,2013-03-18 21:24:00,
2013-03-18 16:29:00,58.3,27.0,29.91,WNW,285,2.0,-999.0,30,0.00,,,0.00,WeatherSnoop3.0,2013-03-18 21:29:00,
2013-03-18 16:34:00,57.9,25.0,29.92,West,266,2.0,-999.0,28,0.00,,,0.00,WeatherSnoop3.0,2013-03-18 21:34:00,
2013-03-18 16:39:00,57.9,26.7,29.92,West,277,0.0,-999.0,30,0.00,,,0.00,WeatherSnoop3.0,2013-03-18 21:39:00,
2013-03-18 16:44:00,57.6,25.6,29.91,WNW,293,0.0,-999.0,29,0.00,,,0.00,WeatherSnoop3.0,2013-03-18 21:44:00,
2013-03-18 16:49:00,58.0,26.7,29.91,SW,222,0.0,-999.0,30,0.00,,,0.00,WeatherSnoop3.0,2013-03-18 21:49:00,
2013-03-18 16:54:00,58.4,25.4,29.91,WNW,298,2.0,-999.0,28,0.00,,,0.00,WeatherSnoop3.0,2013-03-18 21:54:00,
2013-03-18 16:59:00,58.4,25.4,29.91,WSW,257,3.0,-999.0,28,0.00,,,0.00,WeatherSnoop3.0,2013-03-18 21:59:00,
2013-03-18 17:04:00,58.2,24.4,29.91,WNW,284,1.0,-999.0,27,0.00,,,0.00,WeatherSnoop3.0,2013-03-18 22:04:00,
2013-03-18 17:09:00,58.4,23.7,29.91,NW,318,1.0,-999.0,26,0.00,,,0.00,WeatherSnoop3.0,2013-03-18 22:09:00,
2013-03-18 17:14:00,58.6,24.7,29.91,WSW,255,3.0,-999.0,27,0.00,,,0.00,WeatherSnoop3.0,2013-03-18 22:14:00,
2013-03-18 17:19:00,58.4,24.6,29.91,West,273,1.0,-999.0,27,0.00,,,0.00,WeatherSnoop3.0,2013-03-18 22:19:00,
2013-03-18 17:24:00,58.4,25.4,29.91,WSW,257,2.0,-999.0,28,0.00,,,0.00,WeatherSnoop3.0,2013-03-18 22:24:00,
2013-03-18 17:29:00,58.5,25.5,29.91,West,271,1.0,-999.0,28,0.00,,,0.00,WeatherSnoop3.0,2013-03-18 22:29:00,
2013-03-18 17:34:00,58.0,24.2,29.90,West,278,1.0,-999.0,27,0.00,,,0.00,WeatherSnoop3.0,2013-03-18 22:34:00,
2013-03-18 17:39:00,57.5,23.8,29.91,West,269,0.0,-999.0,27,0.00,,,0.00,WeatherSnoop3.0,2013-03-18 22:39:00,
2013-03-18 17:44:00,57.9,23.2,29.91,West,278,1.0,-999.0,26,0.00,,,0.00,WeatherSnoop3.0,2013-03-18 22:44:00,
2013-03-18 17:49:00,57.8,22.2,29.90,NNE,22,4.0,-999.0,25,0.00,,,0.00,WeatherSnoop3.0,2013-03-18 22:49:00,
2013-03-18 17:54:00,56.9,23.3,29.90,WNW,283,2.0,-999.0,27,0.00,,,0.00,WeatherSnoop3.0,2013-03-18 22:54:00,
2013-03-18 17:59:00,57.3,22.7,29.90,WNW,283,2.0,-999.0,26,0.00,,,0.00,WeatherSnoop3.0,2013-03-18 22:59:00,
2013-03-18 18:04:00,57.5,22.9,29.90,West,281,3.0,-999.0,26,0.00,,,0.00,WeatherSnoop3.0,2013-03-18 23:04:00,
2013-03-18 18:09:00,57.5,22.0,29.90,North,5,2.0,-999.0,25,0.00,,,0.00,WeatherSnoop3.0,2013-03-18 23:09:00,
2013-03-18 18:14:00,57.5,22.0,29.90,NW,312,2.0,-999.0,25,0.00,,,0.00,WeatherSnoop3.0,2013-03-18 23:14:00,
2013-03-18 18:19:00,57.3,21.8,29.90,NNE,15,0.0,-999.0,25,0.00,,,0.00,WeatherSnoop3.0,2013-03-18 23:19:00,
2013-03-18 18:24:00,57.4,21.9,29.90,North,5,0.0,-999.0,25,0.00,,,0.00,WeatherSnoop3.0,2013-03-18 23:24:00,
2013-03-18 18:29:00,56.7,22.2,29.90,WNW,293,0.0,-999.0,26,0.00,,,0.00,WeatherSnoop3.0,2013-03-18 23:29:00,
2013-03-18 18:34:00,56.6,22.1,29.90,West,281,2.0,-999.0,26,0.00,,,0.00,WeatherSnoop3.0,2013-03-18 23:34:00,
2013-03-18 18:39:00,56.1,22.6,29.91,WNW,289,0.0,-999.0,27,0.00,,,0.00,WeatherSnoop3.0,2013-03-18 23:39:00,
2013-03-18 18:44:00,55.8,24.0,29.91,North,8,0.0,-999.0,29,0.00,,,0.00,WeatherSnoop3.0,2013-03-18 23:44:00,
2013-03-18 18:49:00,55.3,22.8,29.91,NW,309,0.0,-999.0,28,0.00,,,0.00,WeatherSnoop3.0,2013-03-18 23:49:00,
2013-03-18 18:54:00,54.8,24.0,29.91,WNW,292,0.0,-999.0,30,0.00,,,0.00,WeatherSnoop3.0,2013-03-18 23:54:00,
2013-03-18 18:59:00,54.3,24.3,29.91,WNW,287,0.0,-999.0,31,0.00,,,0.00,WeatherSnoop3.0,2013-03-18 23:59:00,
2013-03-18 19:04:00,53.7,24.6,29.91,SW,222,0.0,-999.0,32,0.00,,,0.00,WeatherSnoop3.0,2013-03-19 00:04:00,
2013-03-18 19:09:00,53.0,25.4,29.91,SW,222,0.0,-999.0,34,0.00,,,0.00,WeatherSnoop3.0,2013-03-19 00:09:00,
2013-03-18 19:14:00,52.3,24.8,29.91,SW,222,0.0,-999.0,34,0.00,,,0.00,WeatherSnoop3.0,2013-03-19 00:14:00,
2013-03-18 19:19:00,51.7,26.3,29.91,SW,229,0.0,-999.0,37,0.00,,,0.00,WeatherSnoop3.0,2013-03-19 00:19:00,
2013-03-18 19:24:00,50.9,26.2,29.91,SW,229,0.0,-999.0,38,0.00,,,0.00,WeatherSnoop3.0,2013-03-19 00:24:00,
2013-03-18 19:29:00,50.0,25.4,29.91,SW,229,0.0,-999.0,38,0.00,,,0.00,WeatherSnoop3.0,2013-03-19 00:29:00,
2013-03-18 19:34:00,49.5,25.0,29.91,SW,229,0.0,-999.0,38,0.00,,,0.00,WeatherSnoop3.0,2013-03-19 00:34:00,
2013-03-18 19:39:00,49.1,25.2,29.90,SW,229,0.0,-999.0,39,0.00,,,0.00,WeatherSnoop3.0,2013-03-19 00:39:00,
2013-03-18 19:44:00,48.1,24.9,29.90,SW,229,0.0,-999.0,40,0.00,,,0.00,WeatherSnoop3.0,2013-03-19 00:44:00,
2013-03-18 19:49:00,47.1,25.8,29.90,SW,229,0.0,-999.0,43,0.00,,,0.00,WeatherSnoop3.0,2013-03-19 00:49:00,
2013-03-18 19:54:00,46.3,26.7,29.90,SW,229,0.0,-999.0,46,0.00,,,0.00,WeatherSnoop3.0,2013-03-19 00:54:00,
2013-03-18 19:59:00,45.3,25.8,29.91,SW,229,0.0,-999.0,46,0.00,,,0.00,WeatherSnoop3.0,2013-03-19 00:59:00,
2013-03-18 20:04:00,44.5,25.5,29.91,SW,229,0.0,-999.0,47,0.00,,,0.00,WeatherSnoop3.0,2013-03-19 01:04:00,
2013-03-18 20:09:00,43.9,25.5,29.91,SW,229,0.0,-999.0,48,0.00,,,0.00,WeatherSnoop3.0,2013-03-19 01:09:00,
2013-03-18 20:14:00,43.4,26.5,29.91,SW,229,0.0,-999.0,51,0.00,,,0.00,WeatherSnoop3.0,2013-03-19 01:14:00,
2013-03-18 20:19:00,42.8,26.4,29.91,SW,229,0.0,-999.0,52,0.00,,,0.00,WeatherSnoop3.0,2013-03-19 01:19:00,
2013-03-18 20:24:00,42.2,26.8,29.92,SW,229,0.0,-999.0,54,0.00,,,0.00,WeatherSnoop3.0,2013-03-19 01:24:00,
2013-03-18 20:29:00,41.3,26.4,29.92,SW,229,0.0,-999.0,55,0.00,,,0.00,WeatherSnoop3.0,2013-03-19 01:29:00,
2013-03-18 20:34:00,40.4,26.4,29.92,SW,229,0.0,-999.0,57,0.00,,,0.00,WeatherSnoop3.0,2013-03-19 01:34:00,
2013-03-18 20:39:00,39.7,26.6,29.92,SW,236,0.0,-999.0,59,0.00,,,0.00,WeatherSnoop3.0,2013-03-19 01:39:00,
2013-03-18 20:44:00,40.2,26.6,29.92,WSW,238,0.0,-999.0,58,0.00,,,0.00,WeatherSnoop3.0,2013-03-19 01:44:00,
2013-03-18 20:49:00,39.8,26.7,29.92,WSW,239,0.0,-999.0,59,0.00,,,0.00,WeatherSnoop3.0,2013-03-19 01:49:00,
2013-03-18 20:54:00,39.3,26.6,29.92,WSW,238,0.0,-999.0,60,0.00,,,0.00,WeatherSnoop3.0,2013-03-19 01:54:00,
2013-03-18 20:59:00,39.5,26.8,29.92,WSW,239,0.0,-999.0,60,0.00,,,0.00,WeatherSnoop3.0,2013-03-19 01:59:00,
2013-03-18 21:04:00,39.3,26.2,29.92,WSW,238,0.0,-999.0,59,0.00,,,0.00,WeatherSnoop3.0,2013-03-19 02:04:00,
2013-03-18 21:09:00,38.6,26.3,29.93,WSW,239,0.0,-999.0,61,0.00,,,0.00,WeatherSnoop3.0,2013-03-19 02:09:00,
2013-03-18 21:14:00,37.8,26.4,29.93,WSW,239,0.0,-999.0,63,0.00,,,0.00,WeatherSnoop3.0,2013-03-19 02:14:00,
2013-03-18 21:19:00,37.1,26.4,29.93,WSW,239,0.0,-999.0,65,0.00,,,0.00,WeatherSnoop3.0,2013-03-19 02:19:00,
2013-03-18 21:24:00,37.2,26.2,29.93,NNE,23,2.0,-999.0,64,0.00,,,0.00,WeatherSnoop3.0,2013-03-19 02:24:00,
2013-03-18 21:29:00,39.1,26.4,29.94,NE,39,0.0,-999.0,60,0.00,,,0.00,WeatherSnoop3.0,2013-03-19 02:29:00,
2013-03-18 21:34:00,39.5,27.2,29.94,NE,39,0.0,-999.0,61,0.00,,,0.00,WeatherSnoop3.0,2013-03-19 02:34:00,
2013-03-18 21:39:00,39.4,26.3,29.94,NE,39,0.0,-999.0,59,0.00,,,0.00,WeatherSnoop3.0,2013-03-19 02:39:00,
2013-03-18 21:44:00,39.3,26.2,29.95,NE,39,0.0,-999.0,59,0.00,,,0.00,WeatherSnoop3.0,2013-03-19 02:44:00,
2013-03-18 21:49:00,39.1,26.4,29.95,NE,40,0.0,-999.0,60,0.00,,,0.00,WeatherSnoop3.0,2013-03-19 02:49:00,
2013-03-18 21:54:00,38.8,25.3,29.95,ENE,60,0.0,-999.0,58,0.00,,,0.00,WeatherSnoop3.0,2013-03-19 02:54:00,
2013-03-18 21:59:00,39.2,26.1,29.95,ENE,60,0.0,-999.0,59,0.00,,,0.00,WeatherSnoop3.0,2013-03-19 02:59:00,
2013-03-18 22:04:00,39.2,26.1,29.96,ENE,60,0.0,-999.0,59,0.00,,,0.00,WeatherSnoop3.0,2013-03-19 03:04:00,
2013-03-18 22:09:00,39.1,26.8,29.96,ENE,59,0.0,-999.0,61,0.00,,,0.00,WeatherSnoop3.0,2013-03-19 03:09:00,
2013-03-18 22:14:00,38.6,26.7,29.96,ENE,59,0.0,-999.0,62,0.00,,,0.00,WeatherSnoop3.0,2013-03-19 03:14:00,
2013-03-18 22:19:00,38.4,26.5,29.97,ENE,60,0.0,-999.0,62,0.00,,,0.00,WeatherSnoop3.0,2013-03-19 03:19:00,
2013-03-18 22:24:00,38.1,26.6,29.97,ENE,58,0.0,-999.0,63,0.00,,,0.00,WeatherSnoop3.0,2013-03-19 03:24:00,
2013-03-18 22:29:00,37.7,26.6,29.97,ENE,58,0.0,-999.0,64,0.00,,,0.00,WeatherSnoop3.0,2013-03-19 03:29:00,
2013-03-18 22:34:00,37.0,27.1,29.97,ENE,58,0.0,-999.0,67,0.00,,,0.00,WeatherSnoop3.0,2013-03-19 03:34:00,
2013-03-18 22:39:00,36.5,27.0,29.97,ENE,58,0.0,-999.0,68,0.00,,,0.00,WeatherSnoop3.0,2013-03-19 03:39:00,
2013-03-18 22:44:00,36.2,26.7,29.97,ENE,58,0.0,-999.0,68,0.00,,,0.00,WeatherSnoop3.0,2013-03-19 03:44:00,
2013-03-18 22:49:00,36.2,26.7,29.97,ENE,58,0.0,-999.0,68,0.00,,,0.00,WeatherSnoop3.0,2013-03-19 03:49:00,
2013-03-18 22:54:00,36.1,26.6,29.97,NNE,30,1.0,-999.0,68,0.00,,,0.00,WeatherSnoop3.0,2013-03-19 03:54:00,
2013-03-18 22:59:00,36.2,26.0,29.97,NE,41,1.0,-999.0,66,0.00,,,0.00,WeatherSnoop3.0,2013-03-19 03:59:00,
2013-03-18 23:00:00,36.2,26.3,29.97,NE,50,1.0,-999.0,67,0.00,,,0.00,WeatherSnoop3.0,2013-03-19 04:00:00,
2013-03-18 23:01:00,36.2,26.3,29.96,NE,50,1.0,-999.0,67,0.00,,,0.00,WeatherSnoop3.0,2013-03-19 04:01:00,
2013-03-18 23:03:00,36.3,25.7,29.96,NE,37,1.0,-999.0,65,0.00,,,0.00,WeatherSnoop3.0,2013-03-19 04:03:00,
2013-03-18 23:04:00,36.4,26.1,29.96,NNE,25,2.0,-999.0,66,0.00,,,0.00,WeatherSnoop3.0,2013-03-19 04:04:00,
2013-03-18 23:09:00,36.9,26.3,29.96,NE,53,1.0,-999.0,65,0.00,,,0.00,WeatherSnoop3.0,2013-03-19 04:09:00,
2013-03-18 23:14:00,37.1,26.1,29.97,NE,51,1.0,-999.0,64,0.00,,,0.00,WeatherSnoop3.0,2013-03-19 04:14:00,
2013-03-18 23:19:00,36.9,25.9,29.97,NE,45,1.0,-999.0,64,0.00,,,0.00,WeatherSnoop3.0,2013-03-19 04:19:00,
2013-03-18 23:24:00,37.0,26.0,29.97,NE,46,0.0,-999.0,64,0.00,,,0.00,WeatherSnoop3.0,2013-03-19 04:24:00,
2013-03-18 23:29:00,37.2,26.2,29.96,NE,52,1.0,-999.0,64,0.00,,,0.00,WeatherSnoop3.0,2013-03-19 04:29:00,
2013-03-18 23:34:00,37.5,26.4,29.95,ENE,60,2.0,-999.0,64,0.00,,,0.00,WeatherSnoop3.0,2013-03-19 04:34:00,
2013-03-18 23:39:00,38.3,26.4,29.96,NNE,32,0.0,-999.0,62,0.00,,,0.00,WeatherSnoop3.0,2013-03-19 04:39:00,
2013-03-18 23:44:00,38.5,26.2,29.97,NE,34,0.0,-999.0,61,0.00,,,0.00,WeatherSnoop3.0,2013-03-19 04:44:00,
2013-03-18 23:49:00,38.6,25.9,29.97,NE,39,0.0,-999.0,60,0.00,,,0.00,WeatherSnoop3.0,2013-03-19 04:49:00,
2013-03-18 23:54:00,38.5,25.8,29.97,NE,34,0.0,-999.0,60,0.00,,,0.00,WeatherSnoop3.0,2013-03-19 04:54:00,
2013-03-18 23:59:00,38.3,26.0,29.97,NE,49,0.0,-999.0,61,0.00,,,0.00,WeatherSnoop3.0,2013-03-19 04:59:00,